Regional Weather Roundup
Issued by NWS

Home | Current Version | Previous Version | Graphics & Text | Print | Product List | Glossary On
Versions: 1 2 3 4 5 6 7 8 9 10 11 12 13 14 15 16 17 18 19 20 21 22 23 24 25 26 27 28 29 30 31 32 33 34 35 36 37 38 39 40 41 42 43 44 45 46 47 48 49 50
000
ASUS44 KMEG 300110
RWRTN
TENNESSEE HOURLY STATE WEATHER ROUNDUP
NATIONAL WEATHER SERVICE MEMPHIS TN
800 PM CDT FRI MAY 29 2015

TNZ002-004-019-021-049-052-054-088>092-300200-
WEST TENNESSEE

CITY           SKY/WX    TMP DP  RH WIND       PRES   REMARKS
MEMPHIS INTL   CLOUDY    78  69  73 S9        30.00R
NWS MEMPHIS      N/A     74 N/A N/A MISG        N/A
JACKSON        MOCLDY    79  68  69 VRB3      30.02R
DYERSBURG      MOCLDY    73  57  56 S5        30.01R
PARIS          CLEAR     75  66  73 S5        30.04R
LEXINGTON      CLEAR     75  68  78 S5        30.03S
$$

TNZ008-025-027-028-033-062-065-066-300200-
NORTH MIDDLE TENNESSEE

CITY           SKY/WX    TMP DP  RH WIND       PRES   REMARKS
NASHVILLE      PTCLDY    74  68  81 CALM      30.08R
CLARKSVILLE    CLEAR     77  68  73 S6        30.04S
SMYRNA         PTCLDY    78  68  71 S5        30.09R
COOKEVILLE     CLEAR     72  66  83 S3        30.11S
CROSSVILLE     PTCLDY    67  64  90 VRB3      30.17R
$$

TNZ061-075-076-078-094-096-097-300200-
SOUTH MIDDLE TENNESSEE

CITY           SKY/WX    TMP DP  RH WIND       PRES   REMARKS
FAYETTEVILLE   CLEAR    N/A N/A N/A MISG      30.11S
TULLAHOMA      CLEAR     73  64  73 S5        30.13S
WINCHESTER     PTCLDY    75  66  73 S7        30.12S
MCMINNVILLE    CLEAR     73  66  78 SW7G214   30.12S
COLUMBIA       CLEAR     75  66  73 S7        30.07R
SHELBYVILLE    CLEAR     77  66  69 S7        30.11S
$$

TNZ017-018-042-046-047-300200-
NORTHEAST TENNESSEE

CITY           SKY/WX    TMP DP  RH WIND       PRES   REMARKS
TRI CITIES     MOCLDY    70  64  81 CALM      30.18S
ELIZABETHTON   CLEAR     66  64  94 CALM      30.19S
$$

TNZ012-013-036-069-073-074-300200-
CENTRAL EAST TENNESSEE

CITY           SKY/WX    TMP DP  RH WIND       PRES   REMARKS
KNOXVILLE      CLOUDY    74  66  76 SE3       30.13S
OAK RIDGE      PTCLDY    77  64  64 VRB3      30.15S
GATLINBURG     CLEAR     70  68  94 CALM      30.15S
MORRISTOWN     PTCLDY    72  66  83 S3        30.17S
$$

TNZ083-085-099-300200-
SOUTHEAST TENNESSEE

CITY           SKY/WX    TMP DP  RH WIND       PRES   REMARKS
CHATTANOOGA    MOCLDY    75  70  84 CALM      30.12S
$$

SKY/WX REPORTED AS FAIR MEANS FEW OR NO CLOUDS BELOW
12 THOUSAND FEET.




USA.gov is the U.S. government's official web portal to all federal, state and local government web resources and services.